| time (UTC) | temp F | wind direction | speed MPH | gust MPH | rain 1hr in | rain 24hr in | rain mn in | humidity % | barometer mb |
| 20260901104557 | 69 | 0 | 0.0 | 0.0 | 0.00 | 0.52 | 0.47 | 100 | 1015.9 |
| 20260901103051 | 69 | 0 | 0.0 | 0.0 | 0.00 | 0.52 | 0.47 | 100 | 1016.1 |
| 20260901101553 | 69 | 0 | 0.0 | 0.0 | 0.00 | 0.52 | 0.47 | 100 | 1016.0 |
| 20260901100056 | 69 | 0 | 0.0 | 0.0 | 0.00 | 0.52 | 0.47 | 100 | 1015.6 |
| 20260901094550 | 69 | 0 | 0.0 | 0.0 | 0.00 | 0.52 | 0.47 | 100 | 1015.6 |
| 20260901093059 | 69 | 0 | 0.0 | 0.0 | 0.00 | 0.52 | 0.47 | 100 | 1015.7 |
| 20260901091549 | 69 | 0 | 0.0 | 0.0 | 0.00 | 0.52 | 0.47 | 100 | 1015.8 |
| 20260901090058 | 69 | 0 | 0.0 | 0.0 | 0.00 | 0.52 | 0.47 | 100 | 1015.8 |
| 20260901084604 | 69 | 0 | 0.0 | 0.0 | 0.00 | 0.52 | 0.47 | 100 | 1016.0 |
| 20260901083054 | 69 | 0 | 0.0 | 0.0 | 0.00 | 0.52 | 0.47 | 100 | 1016.1 |
| 20260901081548 | 69 | 0 | 0.0 | 0.0 | 0.00 | 0.52 | 0.47 | 100 | 1016.1 |
| 20260901080050 | 69 | 0 | 0.0 | 0.0 | 0.00 | 0.52 | 0.47 | 100 | 1016.2 |
| 20260901074558 | 69 | 0 | 0.0 | 1.0 | 0.00 | 0.52 | 0.47 | 100 | 1016.3 |
| 20260901073100 | 69 | 0 | 0.0 | 0.0 | 0.00 | 0.52 | 0.47 | 100 | 1016.3 |
| 20260901071549 | 68 | 0 | 0.0 | 0.0 | 0.00 | 0.52 | 0.47 | 100 | 1016.2 |
| 20260901070113 | 68 | 0 | 0.0 | 2.0 | 0.10 | 0.52 | 0.47 | 99 | 1016.4 |
| 20260901064557 | 68 | 0 | 0.0 | 1.0 | 0.12 | 0.52 | 0.47 | 99 | 1016.6 |
| 20260901063053 | 68 | 0 | 0.0 | 0.0 | 0.13 | 0.52 | 0.47 | 99 | 1016.7 |
| 20260901061603 | 68 | 0 | 0.0 | 0.0 | 0.13 | 0.52 | 0.47 | 99 | 1016.9 |
| 20260901060100 | 68 | 0 | 0.0 | 0.0 | 0.08 | 0.43 | 0.37 | 99 | 1017.2 |
| 20260901054559 | 68 | 0 | 0.0 | 0.0 | 0.19 | 0.41 | 0.35 | 99 | 1016.9 |
| 20260901053054 | 68 | 0 | 0.0 | 1.0 | 0.25 | 0.40 | 0.34 | 98 | 1017.0 |
| 20260901051559 | 68 | 0 | 0.0 | 0.0 | 0.29 | 0.40 | 0.34 | 98 | 1017.1 |
| 20260901050058 | 69 | 0 | 0.0 | 0.0 | 0.28 | 0.35 | 0.29 | 98 | 1017.3 |
| 20260901044557 | 69 | 0 | 0.0 | 0.0 | 0.21 | 0.22 | 0.16 | 97 | 1017.4 |
| 20260901043051 | 69 | 0 | 0.0 | 0.0 | 0.15 | 0.15 | 0.09 | 96 | 1017.6 |
| 20260901041550 | 69 | 0 | 0.0 | 0.0 | 0.11 | 0.11 | 0.05 | 95 | 1017.6 |
| 20260901040058 | 70 | 0 | 0.0 | 0.0 | 0.06 | 0.06 | 0.00 | 95 | 1017.6 |
| 20260901034553 | 70 | 0 | 0.0 | 0.0 | 0.01 | 0.01 | 0.01 | 94 | 1017.5 |
| 20260901033117 | 70 | 0 | 0.0 | 0.0 | 0.00 | 0.00 | 0.00 | 93 | 1017.5 |
| 20260901031559 | 70 | 0 | 0.0 | 0.0 | 0.00 | 0.00 | 0.00 | 92 | 1017.6 |
| 20260901024552 | 70 | 0 | 0.0 | 0.0 | 0.00 | 0.00 | 0.00 | 91 | 1017.8 |
| 20260901023051 | 71 | 0 | 0.0 | 0.0 | 0.00 | 0.00 | 0.00 | 91 | 1017.8 |
| 20260901021600 | 71 | 0 | 0.0 | 0.0 | 0.00 | 0.00 | 0.00 | 90 | 1018.1 |
| 20260901020057 | 71 | 0 | 0.0 | 0.0 | 0.00 | 0.00 | 0.00 | 89 | 1018.0 |
| 20260901014554 | 71 | 0 | 0.0 | 0.0 | 0.00 | 0.03 | 0.00 | 89 | 1018.1 |
| 20260901013055 | 71 | 0 | 0.0 | 0.0 | 0.00 | 0.03 | 0.00 | 89 | 1018.2 |
| 20260901011609 | 71 | 0 | 0.0 | 0.0 | 0.00 | 0.03 | 0.00 | 89 | 1018.1 |
| 20260901010113 | 71 | 0 | 0.0 | 0.0 | 0.00 | 0.03 | 0.00 | 89 | 1018.1 |
| 20260901004558 | 71 | 0 | 0.0 | 0.0 | 0.00 | 0.06 | 0.00 | 89 | 1018.0 |
| 20260901003052 | 71 | 0 | 0.0 | 0.0 | 0.00 | 0.06 | 0.00 | 89 | 1017.9 |
| 20260901001548 | 71 | 0 | 0.0 | 0.0 | 0.00 | 0.06 | 0.00 | 89 | 1017.9 |
| 20260831234558 | 72 | 0 | 0.0 | 0.0 | 0.00 | 0.06 | 0.00 | 88 | 1017.9 |
| 20260831233052 | 73 | 0 | 0.0 | 0.0 | 0.00 | 0.06 | 0.00 | 87 | 1018.0 |
| 20260831231549 | 73 | 0 | 0.0 | 0.0 | 0.00 | 0.06 | 0.00 | 84 | 1018.1 |
| 20260831224557 | 74 | 0 | 0.0 | 0.0 | 0.00 | 0.06 | 0.00 | 83 | 1018.3 |
| 20260831223057 | 74 | 0 | 0.0 | 1.0 | 0.00 | 0.06 | 0.00 | 82 | 1018.2 |
| 20260831221608 | 74 | 0 | 0.0 | 0.0 | 0.00 | 0.06 | 0.00 | 83 | 1018.3 |
| 20260831220105 | 74 | 254 | 0.0 | 1.0 | 0.00 | 0.06 | 0.00 | 82 | 1018.4 |
| 20260831214559 | 74 | 0 | 0.0 | 8.0 | 0.00 | 0.06 | 0.00 | 81 | 1018.4 |
| 20260831213050 | 74 | 0 | 2.0 | 7.0 | 0.00 | 0.06 | 0.00 | 81 | 1018.3 |
| 20260831211557 | 74 | 0 | 0.0 | 4.0 | 0.00 | 0.06 | 0.00 | 81 | 1018.4 |
| 20260831210053 | 74 | 263 | 0.0 | 10.0 | 0.00 | 0.06 | 0.00 | 81 | 1018.5 |
| 20260831204550 | 75 | 0 | 1.0 | 8.0 | 0.00 | 0.06 | 0.00 | 80 | 1018.6 |
| 20260831203106 | 76 | 0 | 1.0 | 4.0 | 0.00 | 0.06 | 0.00 | 76 | 1018.4 |
| 20260831201554 | 76 | 0 | 0.0 | 0.0 | 0.00 | 0.06 | 0.00 | 76 | 1018.4 |
| 20260831200053 | 76 | 0 | 0.0 | 1.0 | 0.00 | 0.06 | 0.00 | 76 | 1018.6 |
| 20260831194604 | 77 | 0 | 0.0 | 0.0 | 0.00 | 0.06 | 0.00 | 76 | 1018.7 |
| 20260831193053 | 77 | 0 | 0.0 | 2.0 | 0.00 | 0.06 | 0.00 | 72 | 1018.8 |
| 20260831191548 | 78 | 0 | 0.0 | 3.0 | 0.00 | 0.06 | 0.00 | 70 | 1018.9 |
| 20260831190109 | 78 | 0 | 0.0 | 4.0 | 0.00 | 0.06 | 0.00 | 71 | 1019.2 |
| 20260831184556 | 78 | 0 | 0.0 | 3.0 | 0.00 | 0.06 | 0.00 | 71 | 1019.3 |
| 20260831183108 | 78 | 0 | 0.0 | 1.0 | 0.00 | 0.06 | 0.00 | 69 | 1019.4 |
| 20260831181602 | 79 | 202 | 0.0 | 2.0 | 0.00 | 0.06 | 0.00 | 71 | 1019.5 |
| 20260831174554 | 79 | 0 | 0.0 | 4.0 | 0.00 | 0.06 | 0.00 | 70 | 1019.8 |
| 20260831173056 | 80 | 0 | 0.0 | 2.0 | 0.00 | 0.06 | 0.00 | 68 | 1019.8 |
| 20260831171558 | 79 | 51 | 0.0 | 3.0 | 0.00 | 0.06 | 0.00 | 67 | 1019.7 |
| 20260831170058 | 78 | 0 | 0.0 | 4.0 | 0.00 | 0.06 | 0.00 | 68 | 1019.9 |
| 20260831164552 | 79 | 0 | 0.0 | 3.0 | 0.00 | 0.06 | 0.00 | 67 | 1020.0 |
| 20260831163049 | 79 | 44 | 0.0 | 5.0 | 0.00 | 0.06 | 0.00 | 69 | 1019.9 |
| 20260831161600 | 78 | 0 | 0.0 | 2.0 | 0.00 | 0.06 | 0.00 | 70 | 1020.1 |
| 20260831160106 | 77 | 0 | 0.0 | 3.0 | 0.00 | 0.06 | 0.00 | 72 | 1020.1 |
| 20260831154622 | 78 | 0 | 0.0 | 4.0 | 0.00 | 0.06 | 0.00 | 72 | 1020.1 |
| 20260831153050 | 77 | 0 | 0.0 | 2.0 | 0.00 | 0.06 | 0.00 | 74 | 1020.2 |
| 20260831151602 | 76 | 0 | 0.0 | 4.0 | 0.00 | 0.06 | 0.00 | 77 | 1020.2 |
| 20260831150109 | 75 | 0 | 0.0 | 1.0 | 0.00 | 0.06 | 0.00 | 80 | 1020.1 |
| 20260831144600 | 74 | 0 | 0.0 | 3.0 | 0.00 | 0.06 | 0.00 | 80 | 1020.4 |
| 20260831143049 | 74 | 0 | 0.0 | 2.0 | 0.00 | 0.06 | 0.00 | 81 | 1020.5 |
| 20260831141602 | 73 | 0 | 0.0 | 1.0 | 0.00 | 0.06 | 0.00 | 81 | 1020.4 |
| 20260831140059 | 72 | 0 | 0.0 | 0.0 | 0.00 | 0.06 | 0.00 | 83 | 1020.3 |
| 20260831134553 | 72 | 0 | 0.0 | 4.0 | 0.00 | 0.06 | 0.00 | 86 | 1020.2 |
| 20260831133050 | 71 | 0 | 0.0 | 0.0 | 0.00 | 0.06 | 0.00 | 87 | 1020.2 |
| 20260831131554 | 70 | 0 | 0.0 | 0.0 | 0.00 | 0.06 | 0.00 | 89 | 1020.2 |
| 20260831130059 | 69 | 0 | 0.0 | 0.0 | 0.00 | 0.06 | 0.00 | 92 | 1020.1 |
| 20260831124553 | 69 | 0 | 0.0 | 0.0 | 0.00 | 0.06 | 0.00 | 94 | 1020.2 |
| 20260831123054 | 68 | 0 | 0.0 | 0.0 | 0.00 | 0.06 | 0.00 | 94 | 1020.3 |
| 20260831121600 | 67 | 0 | 0.0 | 0.0 | 0.00 | 0.06 | 0.00 | 95 | 1020.2 |
| 20260831120058 | 66 | 0 | 0.0 | 0.0 | 0.00 | 0.06 | 0.00 | 96 | 1020.1 |
| 20260831114554 | 66 | 0 | 0.0 | 0.0 | 0.00 | 0.06 | 0.00 | 97 | 1020.0 |
| 20260831113107 | 66 | 0 | 0.0 | 0.0 | 0.00 | 0.06 | 0.00 | 97 | 1019.8 |
| 20260831111611 | 66 | 0 | 0.0 | 0.0 | 0.00 | 0.06 | 0.00 | 97 | 1019.7 |